Regional Weather Roundup
Issued by NWS

Home | Current Version | Previous Version | Text Only | Print | Product List | Glossary On
Versions: 1 2 3 4 5 6 7 8 9 10 11 12 13 14 15 16 17 18 19 20 21 22 23 24 25 26 27 28 29 30 31 32 33 34 35 36 37 38 39 40 41 42 43 44 45 46 47 48 49 50
000
ASUS43 KBIS 021702
RWRND

NORTH DAKOTA REGIONAL WEATHER ROUNDUP
NATIONAL WEATHER SERVICE BISMARCK ND
1200 PM CDT TUE JUN 02 2015

NOTE: "FAIR" INDICATES FEW OR NO CLOUDS BELOW 12,000 FEET WITH NO
SIGNIFICANT WEATHER AND/OR OBSTRUCTIONS TO VISIBILITY.


NDZ001>003-009>011-017-021800-
NORTHWEST NORTH DAKOTA

CITY           SKY/WX    TMP DP  RH WIND       PRES   REMARKS
WILLISTON      HVY RAIN  57  56  96 N8        29.82R FOG
MINOT          CLOUDY    65  60  84 NE10      29.80S
MINOT AFB      CLOUDY    63  63 100 E9        29.81R
$$

NDZ018>021-031>035-040>046-021800-
SOUTHWEST NORTH DAKOTA

CITY           SKY/WX    TMP DP  RH WIND       PRES   REMARKS
BISMARCK       CLOUDY    72  63  73 W3        29.76F
DICKINSON      PTSUNNY   69  57  65 CALM      29.78F
GARRISON         N/A     67  62  84 SE9       29.79F
HETTINGER ARPT SUNNY     74  59  59 SW8       29.79F
$$

NDZ004>008-012>016-024-026-027-054-021800-
NORTHEAST NORTH DAKOTA

CITY           SKY/WX    TMP DP  RH WIND       PRES   REMARKS
GRAND FORKS    LGT RAIN  65  57  75 S6        29.81F
GRND FRKS AFB  CLOUDY    65  57  75 S5        29.81S
DEVILS LAKE    CLOUDY    64  57  77 E6        29.81R
$$

NDZ022-023-025-028>030-036>039-047>053-021800-
SOUTHEAST NORTH DAKOTA

CITY           SKY/WX    TMP DP  RH WIND       PRES   REMARKS
FARGO          LGT RAIN  65  56  72 SE26G46   29.73F
JAMESTOWN      CLOUDY    65  59  81 S10       29.79R
$$



USA.gov is the U.S. government's official web portal to all federal, state and local government web resources and services.